sat.trackr.live / text

‹ back to catalog

STARLINK-33977

NORAD 64344 · 2025-126A

PAYLOAD ACTIVE UNKNOWN

§ Identity

Operator
Country
US
Launch date
2025-06-13
Launch site
AFWTR
Launch vehicle
Mass (kg)
RCS (m²)

Purposes: comms

External: N2YO · Heavens-Above · Gunter

§ Orbital elements

Epoch: 2026-09-20T10:25:04.935360Z

Period
94.14 min
Inclination
70.0011°
Eccentricity
0.0003533
Mean motion
15.29597857 rev/d
Perigee alt
474.6 km
Apogee alt
479.4 km
Semi-major
6,855.2 km
B*
4.9293e-4
RAAN
261.0108°
Arg perigee
280.1518°
Mean anomaly
79.9259°
Rev number
7,112

§ Raw data

STARLINK-339771 64344U 25126A   26263.43408490  .00014077  00000+0  49293-3 0  99962 64344  70.0011 261.0108 0003533 280.1518  79.9259 15.29597857 71129

JSON: /api/v1/satellites/64344 · /tle

For live sub-satellite position, see the globe view (requires WebGL).

§ Visibility from observer

Set your observer location to see the next 7 days of passes ≥ 10°. The values pass through the URL so the page stays shareable.

No JS? Fill the form by hand. The geolocation button needs JavaScript.